Location: Hylvaty SDH
(49.9612°N, 16.4057°E)
Time: 22:40:41
(UTC+02:00)

A-11 Canister half - Pass Details

Date: 07 October 2020
Orbit: 1515 x 1685 km, 47.2° (Epoch: 20 October)

Event Time Altitude Azimuth Distance (km) Brightness Sun altitude
Exits shadow 03:06:18 46° 141° (SE) 2,010 9.4 -36.4°
Drops below altitude 10° 03:14:40 10° 79° (E) 3,719 11.6 -35.4°
Sets 03:17:49 0° 74° (ENE) 4,688 12.4 -35.0°
